OPS 4947 (TRANSIT 17) (2965 NORAD) Tracking and Keplerian Element Data

This shows tracking and keplerian element data for the satellite.

Feedback or suggestion? Click here.




ElementValue
Catalog2965
NameOPS 4947 (TRANSIT 17)
Epoch Orbit87197
Epoch Day354.13035454
Epoch Year2025
RAAN23.8719
Inclination89.2488
Eccentricity0.0046695
Argument of Perigee212.481
Mean Anonmoly208.1838
Mean Motion13.53455414
Decay Rate1.41E-06
L11 02965U 67092A 25354.13035454 .00000141 00000+0 19202-3 0 9992
L22 02965 89.2488 23.8719 0046695 212.4810 208.1838 13.53455414871978



Live tracking and technical data element details for OPS 4947 (TRANSIT 17) (NORAD 2965). OPS 4947 (TRANSIT 17) can be tracked NOW for your location showing map with azimuth and elevation plus other details from your city location.







IsCatalogInMostPopularTable: catalog: 2965, numindb: 381
Update: records affected: 1



GetName: 2965 OPS 4947 (TRANSIT 17)

Hit Count: updated at: Sun, 08 Feb 2026 16:42:27 GMT